Simultaneous Nadir Overpasses (SNOs) Predictions

Prediction of SNOs between GOES-17 and NOAA-21 Satellite Orbit:

Table of predicted SNOs for the next 14.0 days since TLE Epoch: 3/8/2024
Index Date Time (GOES-17) GOES-17 Lat,Lon NOAA-21 Lat,Lon Distance(km) Time Diff (sec)
1 03/09/2024 20:26:05 0.01,-104.68 -0.29,-105.87 136.55 80
2 03/10/2024 20:10:02 0.01,-104.69 0.77,-101.36 379.87 80
3 03/12/2024 08:31:52 -0.01,-104.71 0.42,-106.63 218.51 80
4 03/13/2024 08:10:28 -0.00,-104.71 -0.59,-102.10 297.79 80
5 03/14/2024 20:32:27 0.00,-104.70 -0.60,-107.41 309.05 80
6 03/15/2024 20:16:23 0.00,-104.70 0.41,-102.88 207.26 80
7 03/17/2024 08:38:12 -0.01,-104.72 0.77,-108.15 391.18 80
8 03/18/2024 08:16:49 -0.01,-104.73 -0.24,-103.63 125.02 80
9 03/19/2024 20:38:47 0.01,-104.71 -0.93,-108.94 481.92 80
10 03/20/2024 20:22:44 0.01,-104.71 0.09,-104.41 34.61 80
